Location: Kalberh�ni
(46.4610°N, 7.2453°E)
Time: 02:40:15
(UTC+00:00)

ALOS 2 - Pass Details

Date: 20 June 2021
Orbit: 630 x 632 km, 97.9° (Epoch: 25 July)

Event Time Altitude Azimuth Distance (km) Brightness Sun altitude
Exits shadow 21:57:59 18° 106° (ESE) 1,575 4.3 -16.9°
Maximum altitude 22:00:08 25° 65° (ENE) 1,270 4.2 -17.0°
Drops below altitude 10° 22:03:45 10° 10° (N) 2,025 6.1 -17.3°
Sets 22:06:14 0° 358° (N) 2,938 7.4 -17.4°
